GW5385 Weather Reports


Display with metric or nautical units.
time (UTC)temp
F
wind
direction
speed
MPH
gust
MPH
rain 1hr
in
rain 24hr
in
rain mn
in
humidity
%
barometer
mb
20260906151601 54 311 4.0 10.0 0.00 0.03 0.00 85 1021.1
20260906150058 54 305 4.0 11.0 0.00 0.04 0.00 86 1021.1
20260906144555 54 314 4.0 15.0 0.00 0.04 0.00 84 1021.5
20260906143053 58 281 2.0 6.0 0.00 0.04 0.00 80 1021.8
20260906141550 59 62 4.0 8.0 0.00 0.04 0.00 81 1021.0
20260906140049 59 65 6.0 13.0 0.00 0.09 0.00 81 1021.0
20260906134548 59 53 5.0 10.0 0.00 0.09 0.00 81 1020.9
20260906133049 59 44 4.0 9.0 0.00 0.09 0.00 82 1020.8
20260906131545 58 63 3.0 11.0 0.00 0.09 0.00 83 1020.6
20260906130042 58 58 6.0 11.0 0.00 0.09 0.00 82 1020.9
20260906124541 57 11 1.0 9.0 0.00 0.09 0.00 83 1021.2
20260906123039 57 26 7.0 14.0 0.00 0.09 0.00 83 1020.7
20260906121508 57 30 10.0 0.0 0.00 0.00 0.00 83 1020.7
20260906120005 57 32 9.0 13.0 0.00 0.09 0.00 84 1020.9
20260906114502 56 22 7.0 12.0 0.00 0.09 0.00 84 1021.3
20260906113000 56 49 6.0 10.0 0.00 0.09 0.00 84 1021.2
20260906111616 56 44 5.0 12.0 0.00 0.09 0.00 83 1021.1
20260906110100 55 24 6.0 11.0 0.00 0.09 0.00 82 1021.1
20260906104555 56 21 8.0 13.0 0.00 0.09 0.00 80 1021.2
20260906103054 56 32 8.0 12.0 0.00 0.09 0.00 80 1021.2
20260906101551 57 19 7.0 17.0 0.00 0.09 0.00 80 1021.3
20260906100050 57 19 7.0 12.0 0.00 0.09 0.00 79 1021.4
20260906094534 57 25 7.0 14.0 0.00 0.09 0.00 80 1021.3
20260906093032 58 351 8.0 18.0 0.00 0.09 0.00 79 1021.4
20260906091545 58 15 9.0 16.0 0.00 0.09 0.00 79 1021.7
20260906090053 58 333 10.0 19.0 0.00 0.09 0.00 79 1022.0
20260906084549 56 338 2.0 6.0 0.00 0.09 0.00 82 1022.7
20260906083042 57 300 1.0 11.0 0.00 0.09 0.00 81 1022.6
20260906081539 57 41 9.0 14.0 0.00 0.09 0.00 80 1021.9
20260906080040 58 30 9.0 16.0 0.00 0.09 0.00 79 1021.6
20260906074535 58 356 8.0 14.0 0.00 0.09 0.00 79 1021.8
20260906073040 58 20 10.0 16.0 0.00 0.09 0.00 78 1021.8
20260906071537 58 6 12.0 16.0 0.00 0.09 0.00 78 1021.9
20260906070032 58 16 9.0 14.0 0.00 0.09 0.00 79 1022.1
20260906064526 58 352 4.0 10.0 0.00 0.09 0.00 78 1022.8
20260906063025 58 32 10.0 15.0 0.00 0.09 0.00 78 1022.7
20260906061522 57 26 11.0 17.0 0.00 0.09 0.00 79 1022.6
20260906060022 56 8 7.0 11.0 0.00 0.09 0.09 79 1022.8
20260906054517 56 5 7.0 11.0 0.01 0.09 0.09 78 1022.7
20260906053016 56 335 6.0 11.0 0.01 0.09 0.09 79 1022.5
20260906051515 56 1 9.0 16.0 0.01 0.09 0.09 79 1022.5
20260906050015 56 4 13.0 22.0 0.01 0.09 0.09 79 1022.2
20260906044514 57 12 8.0 16.0 0.00 0.08 0.08 78 1023.3
20260906043011 57 18 14.0 19.0 0.01 0.08 0.08 79 1021.9
20260906041510 57 7 12.0 18.0 0.02 0.08 0.08 80 1021.7
20260906040012 57 20 12.0 18.0 0.02 0.08 0.08 79 1021.7
20260906034511 58 24 5.0 9.0 0.02 0.08 0.08 78 1022.4
20260906033014 60 344 5.0 8.0 0.00 0.06 0.06 68 1022.5
20260906031502 60 18 4.0 18.0 0.00 0.06 0.06 67 1022.6
20260906030002 60 300 14.0 21.0 0.00 0.06 0.06 67 1021.3
20260906024502 59 19 12.0 19.0 0.00 0.06 0.06 67 1020.7
20260906023102 60 18 13.0 18.0 0.00 0.06 0.06 66 1020.6
20260906021559 61 27 10.0 14.0 0.00 0.06 0.06 64 1020.7
20260906020055 62 34 8.0 13.0 0.00 0.06 0.06 61 1020.6
20260906014607 63 41 5.0 9.0 0.00 0.06 0.06 59 1020.6
20260906013055 64 24 6.0 12.0 0.00 0.06 0.06 58 1020.6
20260906011552 65 30 6.0 13.0 0.00 0.06 0.06 56 1020.6
20260906010049 66 359 10.0 14.0 0.00 0.06 0.06 55 1020.5
20260906004549 66 26 7.0 14.0 0.00 0.06 0.06 54 1020.6
20260906003105 67 33 8.0 13.0 0.00 0.06 0.06 54 1020.7
20260906001549 68 15 9.0 14.0 0.00 0.06 0.06 53 1020.7
20260906000045 69 37 11.0 14.0 0.00 0.06 0.06 53 1020.8
20260905234544 68 41 8.0 13.0 0.00 0.06 0.06 53 1021.1
20260905233043 69 67 7.0 12.0 0.00 0.06 0.06 50 1020.9
20260905231543 70 51 7.0 11.0 0.00 0.06 0.06 49 1020.9
20260905230039 72 65 4.0 8.0 0.00 0.06 0.06 46 1020.7
20260905224539 71 6 7.0 12.0 0.00 0.06 0.06 47 1020.8
20260905223038 72 63 3.0 14.0 0.00 0.06 0.06 47 1020.9
20260905221537 72 37 3.0 12.0 0.00 0.06 0.06 45 1020.9
20260905220006 72 282 2.0 7.0 0.00 0.06 0.06 40 1021.0
20260905214506 73 252 2.0 5.0 0.00 0.06 0.06 39 1021.0
20260905213001 72 246 3.0 6.0 0.00 0.06 0.06 39 1021.2
20260905211605 72 344 4.0 7.0 0.00 0.06 0.06 40 1021.2
20260905210100 71 107 0.0 7.0 0.00 0.06 0.06 41 1021.3
20260905204603 71 337 4.0 8.0 0.00 0.06 0.06 41 1021.3
20260905203058 71 231 2.0 6.0 0.00 0.06 0.06 41 1021.3
20260905201553 71 300 3.0 6.0 0.00 0.06 0.06 42 1021.4
20260905200056 70 328 3.0 12.0 0.00 0.06 0.06 42 1021.5
20260905194550 69 41 2.0 8.0 0.00 0.06 0.06 43 1021.6
20260905193147 69 356 4.0 9.0 0.00 0.06 0.06 46 1021.8
20260905191552 69 330 4.0 9.0 0.00 0.06 0.06 44 1021.8
20260905190044 68 339 5.0 8.0 0.00 0.06 0.06 47 1022.0
20260905184540 68 285 3.0 8.0 0.00 0.06 0.06 48 1022.1
20260905183037 67 335 1.0 8.0 0.00 0.06 0.06 50 1022.4
20260905181536 67 340 1.0 6.0 0.00 0.06 0.06 52 1022.3
20260905180030 66 345 0.0 5.0 0.00 0.06 0.06 56 1022.4
20260905174527 65 331 1.0 6.0 0.00 0.06 0.06 56 1022.5
20260905173023 64 328 1.0 5.0 0.00 0.06 0.06 59 1022.4
20260905171525 63 326 2.0 6.0 0.00 0.06 0.06 60 1022.3
20260905170020 63 316 1.0 5.0 0.00 0.06 0.06 63 1022.4
20260905164518 62 23 0.0 4.0 0.00 0.06 0.06 71 1022.5
20260905163114 60 326 2.0 4.0 0.00 0.06 0.06 72 1022.4
20260905161508 58 318 0.0 1.0 0.00 0.06 0.06 81 1022.4
20260905160020 58 282 0.0 2.0 0.00 0.06 0.06 81 1022.2
20260905154505 57 335 0.0 1.0 0.00 0.06 0.06 82 1022.5
20260905153001 57 302 0.0 1.0 0.01 0.06 0.06 84 1022.0